www.pogodaiklimat.ru

Погода и климат >> Архив погоды >> Антарктида >> Esperanza Base


ПОГОДА в Esperanza Base

  • Прогноз погоды в Esperanza Base
  • Монитор погоды в Esperanza Base
  • Климат города

АРХИВ ПОГОДЫ в Esperanza Base

Время (UTC), дата Ветер
(напр.,м/с)
 
Видим.   Явления Облачность Т
(С)
Тd
(С)
f
(%)
Тe
(С)
Тes
(С)
Комфортность P
(гПа)
Po
(гПа)
Тmin
(С)
Tmax
(С)
R
(мм)
R24
(мм)
S
(см)
00 14.11 В 2 10 км {снег} 10/10 210 м
[St]
-1.1 -2.3 92 -5 -5 978.6 975.7 -2.7 +4.7 0.0
03 14.11 СВ 1 10 км 8/8 240 м
[St]
-1.5 -3.2 88 -4 -4 980.3 977.4
06 14.11 СВ 2 10 км 10/10 210 м
[St]
-1.4 -3.4 86 -5 -5 981.2 978.2
09 14.11 ЮВ 2 10 км 9/9 210 м
[Sc]
-1.0 -4.2 79 -5 -5 981.9 978.9
12 14.11 В 3 10 км 10/10 210 м
[St]
-1.1 -4.0 81 -6 -6 982.3 979.3 -1.6 -1.0 0.0
15 14.11 В 5 10 км 10/6 210 м
[St Ac As]
-0.7 -3.5 81 -7 -6 981.9 978.9
18 14.11 ЮВ 5 10 км дымка 10/10 210 м
[St]
-1.0 -1.1 99 -8 -8 981.0 978.0
21 14.11 В 8 1200 м слабый снег 10/10 150 м
[St]
-1.3 -2.0 95 -9 -9 979.3 976.2
00 15.11 В 10 500 м слабый снег {туман} 10/10 120 м
[St]
-2.2 -3.1 94 -11 -11 977.4 974.4 -3.7 -0.7 0.1
03 15.11 ЮВ 12 500 м слабый снег {туман} 10/10 120 м
[St]
-2.5 -3.7 91 -12 -12 975.0 972.1
06 15.11 Ю 11 700 м слабый снег {метель} 10/10 120 м
[St]
-2.8 -3.8 93 -12 -12 972.3 969.4 0.1
09 15.11 Ю 14 300 м снег {метель} ?/? -3.0 -4.0 93 -13 -13 969.9 967.0
12 15.11 Ю 14 <100 м снег {метель} ?/? -3.0 -3.4 97 -14 -14 967.8 964.9 -3.2 -2.1 0.5 7
15 15.11 Ю 13 <100 м снег {метель} ?/? -3.0 -3.4 97 -13 -13 966.4 963.4
18 15.11 Ю 13 <100 м метель {снег} ?/? -3.1 -3.8 95 -13 -13 966.2 963.3 0.0
21 15.11 Ю 14 100 м слабый снег {метель} 10/10 120 м
[St]
-3.0 -4.3 91 -13 -13 967.4 964.5
00 16.11 Ю 16 300 м слабый снег {метель} 9/6 210 м
[St Ac As Ci]
-3.8 -6.3 83 -15 -15 967.0 964.1 -5.6 -2.4 0.0
03 16.11 Ю 16 700 м метель {снег} 10/6 210 м
[St Ac As]
-4.2 -7.6 77 -15 -15 967.1 964.2
06 16.11 Ю 18 900 м метель {снег} 10/0
[Ac As]
-5.0 -7.8 81 -17 -17 966.1 963.2 0.0
09 16.11 Ю 16 900 м метель 5/3 360 м
[St Ac trans]
-4.4 -8.6 72 -15 -15 966.8 963.8
12 16.11 Ю 12 600 м метель 8/4 300 м
[St Ac As Ci fib]
-3.7 -7.7 74 -14 -14 967.8 964.9 -5.7 -3.7 0.0
15 16.11 Ю 15 600 м метель 10/4 300 м
[St Ac lent Cs]
-2.8 -8.9 63 -13 -13 968.0 965.0
18 16.11 Ю 11 2000 м позёмок {метель} 10/4 300 м
[St Ac lent Cs]
-3.0 -6.8 75 -12 -12 971.0 968.0
21 16.11 Ю 21 <100 м сильная метель ?/? -4.1 -7.8 75 -16 -16 969.1 966.1
00 17.11 Ю 16 900 м метель 10/6 450 м
[Sc Ac trans Cs]
-5.4 -9.1 75 -17 -17 972.3 969.3 -7.2 -2.8
03 17.11 Ю 14 400 м слабый снег {метель} 10/10 150 м
[St]
-5.8 -8.8 79 -17 -17 972.1 969.0
06 17.11 Ю 25 900 м слабый снег {метель} 10/6 300 м
[St Ac As]
-5.8 -8.8 79 -19 -19 971.4 968.4 0.0
09 17.11 Ю 17 2000 м сильный позёмок {метель} 6/4 360 м
[St Ac trans Ci]
-4.6 -9.3 70 -16 -16 976.1 973.0
12 17.11 Ю 11 10 км {снег, метель} 5/3 300 м
[St Ac lent Ci]
-4.0 -9.3 67 -13 -13 978.0 975.0 -6.2 -4.0 0.0
15 17.11 Ю 8 10 км 5/0
[Ac lent Ci]
-1.8 -5.9 74 -10 -8 979.3 976.2
18 17.11 Ю 10 20 км 3/0
[Ac lent]
-1.0 -6.3 67 -9 -9 980.4 977.4
21 17.11 Ю 7 20 км 3/3 450 м
[Sc]
-1.5 -6.6 68 -9 -8 981.4 978.4
00 18.11 Ю 11 20 км 3/3 540 м
[Sc Ac trans]
-3.4 -5.5 85 -13 -13 980.8 977.8 -5.1 -0.8
03 18.11 Ю 3 20 км 8/3 570 м
[Sc Ac As]
-3.5 -5.3 87 -8 -8 980.7 977.7
06 18.11 ЮЗ 4 20 км 9/0
[Ac As]
-4.2 -6.1 87 -11 -11 979.5 976.5
09 18.11 ЮВ 2 3000 м слабый снег 10/10 210 м
[St]
-4.2 -5.4 91 -8 -8 978.2 975.2
12 18.11 В 6 1200 м слабый снег 10/10 210 м
[St]
-3.5 -4.6 92 -11 -11 975.3 972.2 -6.1 -3.4 0.1 <0.5
15 18.11 ЮВ 6 2000 м слабый снег 10/10 210 м
[St]
-2.0 -2.9 94 -9 -9 971.7 968.8
18 18.11 Ю 6 800 м слабый снег {туман} 10/10 210 м
[St]
-2.4 -3.0 96 -10 -10 967.6 964.6 0.1
21 18.11 Ю 10 700 м слабый снег {туман} 10/10 180 м
[St]
-3.2 -3.9 95 -13 -13 963.0 960.1
00 19.11 Ю 19 <100 м слабый снег {метель} ?/? -4.5 -5.1 96 -17 -17 960.9 958.0 -5.2 -2.0 0.0
03 19.11 Ю 19 <100 м слабый снег {метель} ?/? -4.4 -5.6 91 -16 -16 962.5 959.6
06 19.11 Ю 14 2000 м слабый снег {метель} 10/10 210 м
[St]
-6.0 -9.5 76 -17 -17 964.7 961.8 0.1
09 19.11 Ю 9 10 км в посл. час снег {метель} 9/9 540 м
[St]
-5.3 -9.0 75 -14 -14 965.4 962.5
12 19.11 Ю 8 10 км {снег} 10/10 450 м
[St]
-5.4 -9.5 73 -14 -14 965.7 962.6 -8.2 -4.4 0.0 <0.5
15 19.11 Ю 6 10 км 10/8 450 м
[St Ac As]
-3.8 -8.2 71 -11 -11 965.7 962.8
18 19.11 Ю 4 3000 м слабый снег 10/10 210 м
[St]
-4.0 -8.1 73 -10 -10 966.1 963.0 0.0
21 19.11 ЮВ 7 4000 м слабый снег 10/10 210 м
[St]
-5.4 -7.5 85 -14 -14 966.8 963.8
00 20.11 ЮВ 5 1200 м слабый снег 10/10 210 м
[St]
-6.0 -6.8 94 -14 -14 966.6 963.6 -6.2 -3.8 0.2
03 20.11 ЮВ 3 3000 м в посл. час снег 10/10 210 м
[St]
-6.0 -8.2 84 -11 -11 966.3 963.3
06 20.11 Ю 4 5000 м дымка {снег} 10/10 540 м
[St]
-5.9 -8.5 82 -12 -12 965.4 962.4 0.2
09 20.11 Ю 5 5000 м дымка 10/8 300 м
[St Ac As]
-4.8 -7.2 83 -12 -12 965.8 962.8
12 20.11 Ю 4 4000 м слабый снег 10/8 300 м
[St Ac As]
-4.5 -7.6 79 -11 -11 966.0 963.0 -8.0 -4.5 0.1 <0.5
15 20.11 ЮВ 6 4000 м в посл. час снег 10/10 270 м
[St]
-3.8 -7.1 78 -11 -11 966.0 963.0
18 20.11 ЮВ 5 4000 м слабый снег 10/10 270 м
[St]
-4.3 -6.6 84 -11 -11 966.9 963.8 0.1
21 20.11 ЮВ 3 10 км в посл. час снег 10/10 360 м
[St]
-4.6 -7.3 81 -10 -10 968.1 965.0

 

Местоположение метеостанции Esperanza Base (Антарктида): широта -63.40 долгота -56.98 высота над уровнем моря 24 м.

В архиве по умолчанию представлена погода в Esperanza Base за последнюю неделю. Архивные данные за месяц целиком и за предыдущие месяцы, начиная с января 2011 года, Вы можете получить, выбрав интересующий диапазон дат из раскрывающегося списка и нажав кнопку "Ввод!".


*Определитесь, кто Вы:
робот инопланетянин человек

Внимание! Время в таблицах - всемирное. Для получения местного времени необходимо прибавить поправку, которая в Esperanza Base равна 0 ч.

Смотрите также архив погоды в соседних городах и на ближайших метеорологических станциях:

Погода в Bernardo o`Higgins (Антарктида) (47 км)
Погода в Marambio Base (Антарктида) (93 км)
Погода в Carlini Base (Антарктида) (155 км)
Погода в King Sejong (Антарктида) (160 км)
Погода в Dinamet-Uruguay (Антарктида) (165 км)
Погода в Bellingshausen (Антарктида) (166 км)
Погода в Great Wall (Антарктида) (166 км)
Погода в Captain Arturo Prat Base (Антарктида) (169 км)
Погода в Frei Chi-Base (Антарктида) (170 км)
Погода в Juan Carlos Island (Антарктида) (191 км)

Пояснения к столбцам:

Ветер - указаны скорость ветра в м/с - средняя за 10 мин, порывы в срок и между сроками (в фигурных скобках) и направление, откуда дует ветер: С - северный, СВ - северо-восточный, В - восточный, ЮВ - юго-восточный, Ю - южный, ЮЗ - юго-западный, З - западный, СЗ - северо-западный.
Видимость - горизонтальная дальность видимости в метрах или километрах. При видимости от 1 до 10 км при отсутствии осадков обычно наблюдается дымка, при ухудшении видимости до 1 км и менее - туман. В сухую погоду видимость может ухудшаться дымом, пылью или мглою.
Явления - указаны атмосферные явления, наблюдавшиеся в срок или в последний час перед сроком; фигурными скобками обозначены явления, наблюдавшиеся между сроками (за 1-3 часа до срока); квадратными скобками обозначены град или гололедные отложения с указанием их диаметра в мм.
Облачность - указаны через наклонную черту общая и нижняя облачность в баллах и высота нижней границы облаков в метрах; квадратными скобками обозначены формы облаков: Ci - перистые, Cs - перисто-слоистые, Cc - перисто-кучевые, Ac - высококучевые, As - высокослоистые, Sc - слоисто-кучевые, Ns - слоисто-дождевые, Cu - кучевые, Cb - кучево-дождевые. Подробнее классификацию облаков см. в Атласе облаков (PDF).
T - Температура воздуха - температура, измеренная на высоте 2 м над землей.
Td - Температура точки росы - температура, при понижении до которой содержащийся в воздухе водяной пар достигнет насыщения.
f - Относительная влажность воздуха - влажноcть воздуха, измеренная на высоте 2 м над землей.
Te - Эффективная температура - температура, которую ощущает одетый по сезону человек в тени. Характеристика душности погоды. При расчете учитывается влияние влажности воздуха и скорости ветра на теплоощущения человека.
Tes - Эффективная температура на солнце - температура, которую ощущает человек, с поправкой на солнечный нагрев. Характеристика знойности погоды. Зависит от высоты солнца над горизонтом, облачности и скорости ветра. Ночью, в пасмурную погоду, а также при ветре 12 м/с и более поправка равна нулю.
P - Атмосферное давление - приведенное к уровню моря атмосферное давление.
Po - Атмосферное давление - измеренное на уровне метеостанции атмосферное давление.
Tmin - Минимальная температура - минимум температуры воздуха на высоте 2 м над землей.
Tmax - Максимальная температура - максимум температуры воздуха на высоте 2 м над землей.
R - Количество осадков - Количество выпавших осадков за период времени, мм. При наведении курсора мыши на число - период времени, за который выпало указанное количество осадков.
R24 - Количество осадков - Количество выпавших осадков за 24 часа, мм.
S - Снежный покров - Высота снежного покрова, см. При наведении курсора мыши на число - состояние снежного покрова и степень покрытия местности в баллах.